Location: B?lite?ti
(46.2833°N, 22.7333°E)
Time: 04:32:07
(UTC+00:00)

Iridium 4 Rocket - Pass Details

Date: 24 January 2021
Orbit: 583 x 906 km, 86.9° (Epoch: 26 February)

Event Time Altitude Azimuth Distance (km) Brightness Sun altitude
Rises 17:25:53 0° 355° (N) 3,455 6.9 -21.2°
Reaches altitude 10° 17:28:23 10° 354° (N) 2,477 6.1 -21.7°
Maximum altitude 17:33:57 72° 271° (W) 839 3.8 -22.6°
Drops below altitude 10° 17:38:59 10° 188° (S) 2,255 6.0 -23.5°
Sets 17:41:12 0° 186° (S) 3,123 6.8 -23.9°
